Time,TemperatureF,DewpointF,PressureIn,WindDirection,WindDirectionDegrees,WindSpeedMPH,WindSpeedGustMPH,Humidity,HourlyPrecipIn,Conditions,Clouds,dailyrainin,SolarRadiationWatts/m^2,SoftwareType,DateUTC
2012-10-04 00:00:00,74.6,73.7,30.16,ESE,105,0.0,4.0,97,0.00,,---,0.00,0.00,VWS V14.01,2012-10-04 04:00:00,
2012-10-04 00:01:00,74.5,73.6,30.16,ESE,105,0.0,4.0,97,0.00,,---,0.00,0.00,VWS V14.01,2012-10-04 04:01:00,
2012-10-04 00:06:00,74.5,73.6,30.16,East,83,0.0,4.0,97,0.00,,---,0.00,0.00,VWS V14.01,2012-10-04 04:06:00,
2012-10-04 00:11:00,74.4,73.5,30.16,East,97,0.0,3.0,97,0.00,,---,0.00,0.00,VWS V14.01,2012-10-04 04:11:00,
2012-10-04 00:16:00,74.4,73.5,30.16,East,97,0.0,3.0,97,0.00,,---,0.00,0.00,VWS V14.01,2012-10-04 04:16:00,
2012-10-04 00:21:00,74.4,73.5,30.16,East,97,0.0,3.0,97,0.00,,---,0.00,0.00,VWS V14.01,2012-10-04 04:21:00,
2012-10-04 00:26:00,74.3,73.4,30.16,East,97,0.0,3.0,97,0.00,,---,0.00,0.00,VWS V14.01,2012-10-04 04:26:00,
2012-10-04 00:31:00,74.2,73.3,30.16,SE,133,0.0,3.0,97,0.00,,---,0.00,0.00,VWS V14.01,2012-10-04 04:31:00,
2012-10-04 00:36:00,74.2,73.3,30.16,SE,133,0.0,3.0,97,0.00,,---,0.00,0.00,VWS V14.01,2012-10-04 04:36:00,
2012-10-04 00:41:00,74.1,73.2,30.15,SE,133,1.0,3.0,97,0.00,,---,0.00,0.00,VWS V14.01,2012-10-04 04:41:00,
2012-10-04 00:46:00,74.1,73.2,30.15,South,178,0.0,4.0,97,0.00,,---,0.00,0.00,VWS V14.01,2012-10-04 04:46:00,
2012-10-04 00:51:00,74.1,73.2,30.15,SE,124,0.0,4.0,97,0.00,,---,0.00,0.00,VWS V14.01,2012-10-04 04:51:00,
2012-10-04 00:56:00,74.1,73.2,30.15,South,172,0.0,4.0,97,0.00,,---,0.00,0.00,VWS V14.01,2012-10-04 04:56:00,
2012-10-04 01:00:00,74.4,73.5,30.16,SE,129,0.0,4.0,97,0.00,,---,0.00,0.00,VWS V14.01,2012-10-04 05:00:00,
2012-10-04 01:02:00,74.0,73.1,30.15,SE,132,1.0,4.0,97,0.00,,---,0.00,0.00,VWS V14.01,2012-10-04 05:02:00,
2012-10-04 01:07:00,74.0,73.1,30.15,SSE,164,4.0,4.0,97,0.00,,---,0.00,0.00,VWS V14.01,2012-10-04 05:07:00,
2012-10-04 01:12:00,74.0,73.1,30.15,South,191,0.0,3.0,97,0.00,,---,0.00,0.00,VWS V14.01,2012-10-04 05:12:00,
2012-10-04 01:17:00,73.9,73.0,30.16,NNE,13,0.0,3.0,97,0.00,,---,0.00,0.00,VWS V14.01,2012-10-04 05:17:00,
2012-10-04 01:22:00,73.9,73.0,30.15,East,89,0.0,3.0,97,0.00,,---,0.00,0.00,VWS V14.01,2012-10-04 05:22:00,
2012-10-04 01:27:00,73.8,72.9,30.15,East,83,0.0,3.0,97,0.00,,---,0.00,0.00,VWS V14.01,2012-10-04 05:27:00,
2012-10-04 01:32:00,73.7,72.8,30.15,East,83,0.0,3.0,97,0.00,,---,0.00,0.00,VWS V14.01,2012-10-04 05:32:00,
2012-10-04 01:37:00,73.7,72.8,30.15,East,83,0.0,3.0,97,0.00,,---,0.00,0.00,VWS V14.01,2012-10-04 05:37:00,
2012-10-04 01:42:00,73.6,72.7,30.15,ESE,120,0.0,3.0,97,0.00,,---,0.00,0.00,VWS V14.01,2012-10-04 05:42:00,
2012-10-04 01:47:00,73.5,72.6,30.15,East,89,0.0,3.0,97,0.00,,---,0.00,0.00,VWS V14.01,2012-10-04 05:47:00,
2012-10-04 01:52:00,73.5,72.6,30.15,East,89,0.0,3.0,97,0.00,,---,0.00,0.00,VWS V14.01,2012-10-04 05:52:00,
2012-10-04 01:57:00,73.4,72.5,30.15,East,89,0.0,3.0,97,0.00,,---,0.00,0.00,VWS V14.01,2012-10-04 05:57:00,
2012-10-04 02:00:00,74.0,73.1,30.15,ENE,77,0.0,4.0,97,0.00,,---,0.00,0.00,VWS V14.01,2012-10-04 06:00:00,
2012-10-04 02:02:00,73.3,72.4,30.15,East,89,0.0,3.0,97,0.00,,---,0.00,0.00,VWS V14.01,2012-10-04 06:02:00,
2012-10-04 02:07:00,73.3,72.4,30.15,East,89,0.0,3.0,97,0.00,,---,0.00,0.00,VWS V14.01,2012-10-04 06:07:00,
2012-10-04 02:12:00,73.2,72.3,30.15,East,89,1.0,1.0,97,0.00,,---,0.00,0.00,VWS V14.01,2012-10-04 06:12:00,
2012-10-04 02:17:00,73.2,72.6,30.14,East,89,0.0,1.0,98,0.00,,---,0.00,0.00,VWS V14.01,2012-10-04 06:17:00,
2012-10-04 02:22:00,73.2,72.6,30.14,ENE,72,0.0,3.0,98,0.00,,---,0.00,0.00,VWS V14.01,2012-10-04 06:22:00,
2012-10-04 02:27:00,73.2,72.6,30.14,East,92,1.0,3.0,98,0.00,,---,0.00,0.00,VWS V14.01,2012-10-04 06:27:00,
2012-10-04 02:32:00,73.3,72.7,30.14,ENE,66,0.0,3.0,98,0.00,,---,0.00,0.00,VWS V14.01,2012-10-04 06:32:00,
2012-10-04 02:37:00,73.3,72.7,30.13,SE,131,2.0,3.0,98,0.00,,---,0.00,0.00,VWS V14.01,2012-10-04 06:37:00,
2012-10-04 02:42:00,73.3,72.7,30.13,NE,45,0.0,3.0,98,0.00,,---,0.00,0.00,VWS V14.01,2012-10-04 06:42:00,
2012-10-04 02:47:00,73.2,72.6,30.13,NE,45,1.0,3.0,98,0.00,,---,0.00,0.00,VWS V14.01,2012-10-04 06:47:00,
2012-10-04 02:52:00,73.2,72.6,30.13,NE,45,0.0,3.0,98,0.00,,---,0.00,0.00,VWS V14.01,2012-10-04 06:52:00,
2012-10-04 02:57:00,73.1,72.5,30.13,NE,45,0.0,3.0,98,0.00,,---,0.00,0.00,VWS V14.01,2012-10-04 06:57:00,
2012-10-04 03:00:00,73.3,72.4,30.15,East,89,0.0,3.0,97,0.00,,---,0.00,0.00,VWS V14.01,2012-10-04 07:00:00,
2012-10-04 03:02:00,73.1,72.5,30.13,NE,45,0.0,3.0,98,0.00,,---,0.00,0.00,VWS V14.01,2012-10-04 07:02:00,
2012-10-04 03:07:00,73.0,72.4,30.13,ENE,60,0.0,3.0,98,0.00,,---,0.00,0.00,VWS V14.01,2012-10-04 07:07:00,
2012-10-04 03:12:00,73.0,72.4,30.13,ENE,60,0.0,1.0,98,0.00,,---,0.00,0.00,VWS V14.01,2012-10-04 07:12:00,
2012-10-04 03:17:00,73.0,72.4,30.13,NE,54,0.0,2.0,98,0.00,,---,0.00,0.00,VWS V14.01,2012-10-04 07:17:00,
2012-10-04 03:22:00,73.0,72.4,30.12,NE,53,1.0,2.0,98,0.00,,---,0.00,0.00,VWS V14.01,2012-10-04 07:22:00,
2012-10-04 03:27:00,73.1,72.5,30.12,NE,53,0.0,2.0,98,0.00,,---,0.00,0.00,VWS V14.01,2012-10-04 07:27:00,
2012-10-04 03:32:00,73.1,72.5,30.12,NE,53,1.0,2.0,98,0.00,,---,0.00,0.00,VWS V14.01,2012-10-04 07:32:00,
2012-10-04 03:37:00,73.0,72.4,30.12,NE,53,0.0,2.0,98,0.00,,---,0.00,0.00,VWS V14.01,2012-10-04 07:37:00,
2012-10-04 03:42:00,73.0,72.4,30.12,ENE,77,0.0,2.0,98,0.00,,---,0.00,0.00,VWS V14.01,2012-10-04 07:42:00,
2012-10-04 03:47:00,72.9,72.3,30.11,ENE,77,0.0,2.0,98,0.00,,---,0.00,0.00,VWS V14.01,2012-10-04 07:47:00,
2012-10-04 03:52:00,72.8,72.2,30.11,ENE,67,0.0,2.0,98,0.00,,---,0.00,0.00,VWS V14.01,2012-10-04 07:52:00,
2012-10-04 03:57:00,72.8,72.2,30.11,ESE,102,0.0,2.0,98,0.00,,---,0.00,0.00,VWS V14.01,2012-10-04 07:57:00,
2012-10-04 04:00:00,73.0,72.4,30.13,ENE,60,0.0,3.0,98,0.00,,---,0.00,0.00,VWS V14.01,2012-10-04 08:00:00,
2012-10-04 04:02:00,72.9,72.3,30.11,NE,52,0.0,2.0,98,0.00,,---,0.00,0.00,VWS V14.01,2012-10-04 08:02:00,
2012-10-04 04:07:00,72.8,72.2,30.11,NE,52,0.0,2.0,98,0.00,,---,0.00,0.00,VWS V14.01,2012-10-04 08:07:00,
2012-10-04 04:12:00,72.9,72.3,30.11,NE,54,0.0,1.0,98,0.00,,---,0.00,0.00,VWS V14.01,2012-10-04 08:12:00,
2012-10-04 04:17:00,72.8,72.2,30.11,ENE,57,0.0,2.0,98,0.00,,---,0.00,0.00,VWS V14.01,2012-10-04 08:17:00,
2012-10-04 04:22:00,72.8,72.2,30.11,East,92,1.0,2.0,98,0.00,,---,0.00,0.00,VWS V14.01,2012-10-04 08:22:00,
2012-10-04 04:27:00,72.8,72.2,30.11,NE,52,1.0,2.0,98,0.00,,---,0.00,0.00,VWS V14.01,2012-10-04 08:27:00,
2012-10-04 04:32:00,72.8,72.2,30.11,East,84,0.0,3.0,98,0.00,,---,0.00,0.00,VWS V14.01,2012-10-04 08:32:00,
2012-10-04 04:37:00,72.7,72.1,30.11,ENE,58,0.0,3.0,98,0.00,,---,0.00,0.00,VWS V14.01,2012-10-04 08:37:00,
2012-10-04 04:42:00,72.8,72.2,30.12,NE,54,1.0,3.0,98,0.00,,---,0.00,0.00,VWS V14.01,2012-10-04 08:42:00,
2012-10-04 04:47:00,72.8,72.2,30.12,NE,54,0.0,3.0,98,0.00,,---,0.00,0.00,VWS V14.01,2012-10-04 08:47:00,
2012-10-04 04:52:00,72.8,72.2,30.12,NE,47,0.0,3.0,98,0.00,,---,0.00,0.00,VWS V14.01,2012-10-04 08:52:00,
2012-10-04 04:57:00,72.8,72.2,30.12,ENE,57,0.0,3.0,98,0.00,,---,0.00,0.00,VWS V14.01,2012-10-04 08:57:00,
2012-10-04 05:00:00,72.9,72.3,30.11,NE,52,0.0,2.0,98,0.00,,---,0.00,0.00,VWS V14.01,2012-10-04 09:00:00,
2012-10-04 05:02:00,72.8,72.2,30.12,ENE,57,0.0,3.0,98,0.00,,---,0.00,0.00,VWS V14.01,2012-10-04 09:02:00,
2012-10-04 05:07:00,72.8,72.2,30.12,ENE,62,1.0,3.0,98,0.00,,---,0.00,0.00,VWS V14.01,2012-10-04 09:07:00,
2012-10-04 05:13:00,72.7,72.1,30.13,ENE,57,1.0,2.0,98,0.00,,---,0.00,0.00,VWS V14.01,2012-10-04 09:13:00,
2012-10-04 05:17:00,72.7,72.1,30.13,ENE,75,1.0,3.0,98,0.00,,---,0.00,0.00,VWS V14.01,2012-10-04 09:17:00,
2012-10-04 05:23:00,72.6,72.0,30.13,NE,53,0.0,3.0,98,0.00,,---,0.00,0.00,VWS V14.01,2012-10-04 09:23:00,
2012-10-04 05:28:00,72.6,72.0,30.13,NE,43,2.0,3.0,98,0.00,,---,0.00,0.00,VWS V14.01,2012-10-04 09:28:00,
2012-10-04 05:33:00,72.6,72.0,30.14,ENE,64,0.0,3.0,98,0.00,,---,0.00,0.00,VWS V14.01,2012-10-04 09:33:00,
2012-10-04 05:38:00,72.6,72.0,30.14,ENE,66,1.0,3.0,98,0.00,,---,0.00,0.00,VWS V14.01,2012-10-04 09:38:00,
2012-10-04 05:43:00,72.5,71.9,30.14,ENE,60,0.0,3.0,98,0.00,,---,0.00,0.00,VWS V14.01,2012-10-04 09:43:00,
2012-10-04 05:48:00,72.5,71.9,30.14,East,84,2.0,4.0,98,0.00,,---,0.00,0.00,VWS V14.01,2012-10-04 09:48:00,
2012-10-04 05:53:00,72.4,71.8,30.14,ENE,78,0.0,4.0,98,0.00,,---,0.00,0.00,VWS V14.01,2012-10-04 09:53:00,
2012-10-04 05:58:00,72.4,71.8,30.14,ENE,68,1.0,4.0,98,0.00,,---,0.00,0.00,VWS V14.01,2012-10-04 09:58:00,
2012-10-04 06:00:00,72.8,72.2,30.12,ENE,70,2.0,3.0,98,0.00,,---,0.00,0.00,VWS V14.01,2012-10-04 10:00:00,
2012-10-04 06:03:00,72.4,71.8,30.15,East,92,0.0,4.0,98,0.00,,---,0.00,0.00,VWS V14.01,2012-10-04 10:03:00,
2012-10-04 06:08:00,72.5,71.9,30.15,East,91,1.0,4.0,98,0.00,,---,0.00,0.00,VWS V14.01,2012-10-04 10:08:00,
2012-10-04 06:13:00,72.5,71.9,30.15,NNE,27,1.0,2.0,98,0.00,,---,0.00,0.00,VWS V14.01,2012-10-04 10:13:00,
2012-10-04 06:18:00,72.6,72.0,30.15,NNW,335,0.0,2.0,98,0.00,,---,0.00,0.00,VWS V14.01,2012-10-04 10:18:00,
2012-10-04 06:23:00,72.4,71.8,30.15,NNW,335,0.0,2.0,98,0.00,,---,0.00,0.00,VWS V14.01,2012-10-04 10:23:00,
2012-10-04 06:28:00,72.5,71.9,30.15,NE,51,1.0,2.0,98,0.00,,---,0.00,0.00,VWS V14.01,2012-10-04 10:28:00,
2012-10-04 06:33:00,72.4,71.8,30.15,ENE,70,0.0,2.0,98,0.00,,---,0.00,0.00,VWS V14.01,2012-10-04 10:33:00,
2012-10-04 06:38:00,72.4,71.8,30.16,NE,48,0.0,3.0,98,0.00,,---,0.00,0.00,VWS V14.01,2012-10-04 10:38:00,
2012-10-04 06:43:00,72.4,71.8,30.16,NE,50,0.0,3.0,98,0.00,,---,0.00,0.00,VWS V14.01,2012-10-04 10:43:00,
2012-10-04 06:48:00,72.5,71.9,30.16,NE,50,0.0,3.0,98,0.00,,---,0.00,0.00,VWS V14.01,2012-10-04 10:48:00,
2012-10-04 06:53:00,72.5,71.9,30.16,NE,50,0.0,3.0,98,0.00,,---,0.00,0.00,VWS V14.01,2012-10-04 10:53:00,
2012-10-04 06:58:00,72.4,71.8,30.16,NE,44,1.0,3.0,98,0.00,,---,0.00,0.00,VWS V14.01,2012-10-04 10:58:00,
2012-10-04 07:00:00,72.5,71.9,30.15,East,91,0.0,4.0,98,0.00,,---,0.00,0.00,VWS V14.01,2012-10-04 11:00:00,
2012-10-04 07:03:00,72.4,71.8,30.16,NE,44,1.0,3.0,98,0.00,,---,0.00,0.00,VWS V14.01,2012-10-04 11:03:00,
2012-10-04 07:08:00,72.3,71.7,30.16,NE,44,0.0,3.0,98,0.00,,---,0.00,0.00,VWS V14.01,2012-10-04 11:08:00,
2012-10-04 07:13:00,72.3,71.7,30.16,ENE,61,0.0,2.0,98,0.00,,---,0.00,0.00,VWS V14.01,2012-10-04 11:13:00,
2012-10-04 07:18:00,72.4,71.8,30.16,ENE,66,0.0,3.0,98,0.00,,---,0.00,0.00,VWS V14.01,2012-10-04 11:18:00,
2012-10-04 07:23:00,72.4,71.8,30.16,ENE,67,0.0,3.0,98,0.00,,---,0.00,0.00,VWS V14.01,2012-10-04 11:23:00,
2012-10-04 07:28:00,72.5,71.9,30.16,ENE,67,0.0,3.0,98,0.00,,---,0.00,5.00,VWS V14.01,2012-10-04 11:28:00,
2012-10-04 07:33:00,72.4,71.8,30.17,ENE,67,0.0,3.0,98,0.00,,---,0.00,9.00,VWS V14.01,2012-10-04 11:33:00,
2012-10-04 07:38:00,72.5,71.9,30.17,ENE,67,0.0,3.0,98,0.00,,---,0.00,12.00,VWS V14.01,2012-10-04 11:38:00,
2012-10-04 07:43:00,72.5,71.9,30.17,NE,56,0.0,4.0,98,0.00,,---,0.00,14.00,VWS V14.01,2012-10-04 11:43:00,
2012-10-04 07:48:00,72.5,71.9,30.16,ENE,67,0.0,4.0,98,0.00,,---,0.00,19.00,VWS V14.01,2012-10-04 11:48:00,
2012-10-04 07:53:00,72.5,71.9,30.16,ENE,67,0.0,4.0,98,0.00,,---,0.00,23.00,VWS V14.01,2012-10-04 11:53:00,
2012-10-04 07:58:00,72.6,72.0,30.17,ESE,115,1.0,4.0,98,0.00,,---,0.00,26.00,VWS V14.01,2012-10-04 11:58:00,
2012-10-04 08:00:00,72.3,71.7,30.16,NE,44,1.0,3.0,98,0.00,,---,0.00,0.00,VWS V14.01,2012-10-04 12:00:00,
2012-10-04 08:03:00,72.6,72.0,30.17,East,86,0.0,4.0,98,0.00,,---,0.00,28.00,VWS V14.01,2012-10-04 12:03:00,
2012-10-04 08:08:00,72.8,72.2,30.17,ESE,104,0.0,4.0,98,0.00,,---,0.00,32.00,VWS V14.01,2012-10-04 12:08:00,
2012-10-04 08:13:00,72.9,72.3,30.17,East,83,2.0,3.0,98,0.00,,---,0.00,33.00,VWS V14.01,2012-10-04 12:13:00,
2012-10-04 08:18:00,73.0,72.4,30.17,NE,52,1.0,4.0,98,0.00,,---,0.00,47.00,VWS V14.01,2012-10-04 12:18:00,
2012-10-04 08:23:00,73.2,72.6,30.17,SE,130,2.0,4.0,98,0.00,,---,0.00,46.00,VWS V14.01,2012-10-04 12:23:00,
2012-10-04 08:28:00,73.5,72.9,30.17,East,81,2.0,4.0,98,0.00,,---,0.00,58.00,VWS V14.01,2012-10-04 12:28:00,
2012-10-04 08:33:00,73.6,73.0,30.17,East,89,0.0,4.0,98,0.00,,---,0.00,46.00,VWS V14.01,2012-10-04 12:33:00,
2012-10-04 08:38:00,73.8,73.2,30.17,NE,55,0.0,4.0,98,0.00,,---,0.00,86.00,VWS V14.01,2012-10-04 12:38:00,
2012-10-04 08:43:00,74.2,73.6,30.17,NE,54,0.0,4.0,98,0.00,,---,0.00,49.00,VWS V14.01,2012-10-04 12:43:00,
2012-10-04 08:48:00,74.6,73.7,30.18,NE,54,0.0,4.0,97,0.00,,---,0.00,114.00,VWS V14.01,2012-10-04 12:48:00,
2012-10-04 08:53:00,74.8,73.9,30.18,NE,54,0.0,4.0,97,0.00,,---,0.00,53.00,VWS V14.01,2012-10-04 12:53:00,
2012-10-04 08:58:00,75.1,74.2,30.18,ENE,59,2.0,4.0,97,0.00,,---,0.00,149.00,VWS V14.01,2012-10-04 12:58:00,
2012-10-04 09:00:00,72.8,72.2,30.17,ESE,104,0.0,4.0,98,0.00,,---,0.00,32.00,VWS V14.01,2012-10-04 13:00:00,
2012-10-04 09:03:00,75.4,74.2,30.18,ESE,103,1.0,4.0,96,0.00,,---,0.00,56.00,VWS V14.01,2012-10-04 13:03:00,
2012-10-04 09:09:00,75.7,74.5,30.18,East,88,3.0,3.0,96,0.00,,---,0.00,97.00,VWS V14.01,2012-10-04 13:09:00,
2012-10-04 09:14:00,76.2,75.0,30.18,NE,54,0.0,4.0,96,0.00,,---,0.00,118.00,VWS V14.01,2012-10-04 13:14:00,
2012-10-04 09:19:00,76.8,75.3,30.18,East,82,0.0,4.0,95,0.00,,---,0.00,123.00,VWS V14.01,2012-10-04 13:19:00,
2012-10-04 09:24:00,77.4,75.5,30.18,ENE,72,3.0,4.0,94,0.00,,---,0.00,105.00,VWS V14.01,2012-10-04 13:24:00,
2012-10-04 09:29:00,77.6,75.7,30.18,NE,48,1.0,4.0,94,0.00,,---,0.00,156.00,VWS V14.01,2012-10-04 13:29:00,
2012-10-04 09:34:00,78.0,76.1,30.18,ENE,75,2.0,4.0,94,0.00,,---,0.00,137.00,VWS V14.01,2012-10-04 13:34:00,
2012-10-04 09:39:00,78.1,75.9,30.18,NNW,345,0.0,4.0,93,0.00,,---,0.00,156.00,VWS V14.01,2012-10-04 13:39:00,
2012-10-04 09:44:00,78.3,76.4,30.18,ENE,67,3.0,4.0,94,0.00,,---,0.00,121.00,VWS V14.01,2012-10-04 13:44:00,
2012-10-04 09:49:00,78.5,76.3,30.18,ENE,77,1.0,4.0,93,0.00,,---,0.00,174.00,VWS V14.01,2012-10-04 13:49:00,
2012-10-04 09:54:00,78.6,76.4,30.18,ENE,74,0.0,4.0,93,0.00,,---,0.00,127.00,VWS V14.01,2012-10-04 13:54:00,
2012-10-04 09:59:00,78.9,76.7,30.18,South,172,0.0,4.0,93,0.00,,---,0.00,97.00,VWS V14.01,2012-10-04 13:59:00,
2012-10-04 10:00:00,75.7,74.5,30.18,East,88,0.0,4.0,96,0.00,,---,0.00,97.00,VWS V14.01,2012-10-04 14:00:00,
2012-10-04 10:04:00,79.2,76.7,30.18,East,80,1.0,4.0,92,0.00,,---,0.00,127.00,VWS V14.01,2012-10-04 14:04:00,
2012-10-04 10:09:00,79.8,77.3,30.18,ESE,108,3.0,3.0,92,0.00,,---,0.00,163.00,VWS V14.01,2012-10-04 14:09:00,
2012-10-04 10:14:00,80.2,77.3,30.18,East,83,1.0,4.0,91,0.00,,---,0.00,200.00,VWS V14.01,2012-10-04 14:14:00,
2012-10-04 10:19:00,80.5,77.6,30.18,East,97,2.0,6.0,91,0.00,,---,0.00,497.00,VWS V14.01,2012-10-04 14:19:00,
2012-10-04 10:24:00,80.6,77.4,30.18,SE,139,0.0,6.0,90,0.00,,---,0.00,439.00,VWS V14.01,2012-10-04 14:24:00,
2012-10-04 10:29:00,80.6,77.4,30.18,SSE,152,2.0,6.0,90,0.00,,---,0.00,211.00,VWS V14.01,2012-10-04 14:29:00,
2012-10-04 10:34:00,81.0,78.1,30.17,East,85,2.0,6.0,91,0.00,,---,0.00,489.00,VWS V14.01,2012-10-04 14:34:00,
2012-10-04 10:39:00,81.5,78.3,30.17,ESE,119,0.0,6.0,90,0.00,,---,0.00,610.00,VWS V14.01,2012-10-04 14:39:00,
2012-10-04 10:44:00,81.9,78.3,30.17,ENE,74,5.0,7.0,89,0.00,,---,0.00,643.00,VWS V14.01,2012-10-04 14:44:00,
2012-10-04 10:49:00,82.1,78.2,30.17,ESE,102,0.0,7.0,88,0.00,,---,0.00,652.00,VWS V14.01,2012-10-04 14:49:00,
2012-10-04 10:54:00,82.7,78.4,30.17,SSE,161,2.0,7.0,87,0.00,,---,0.00,698.00,VWS V14.01,2012-10-04 14:54:00,
2012-10-04 10:59:00,82.9,78.3,30.17,SSE,164,2.0,7.0,86,0.00,,---,0.00,615.00,VWS V14.01,2012-10-04 14:59:00,
2012-10-04 11:00:00,79.8,77.3,30.18,ESE,104,3.0,4.0,92,0.00,,---,0.00,163.00,VWS V14.01,2012-10-04 15:00:00,
2012-10-04 11:04:00,83.6,79.0,30.17,East,91,3.0,8.0,86,0.00,,---,0.00,765.00,VWS V14.01,2012-10-04 15:04:00,
2012-10-04 11:09:00,84.0,78.3,30.17,SSW,203,1.0,3.0,83,0.00,,---,0.00,758.00,VWS V14.01,2012-10-04 15:09:00,
2012-10-04 11:14:00,83.9,78.2,30.17,ENE,78,3.0,4.0,83,0.00,,---,0.00,213.00,VWS V14.01,2012-10-04 15:14:00,
2012-10-04 11:19:00,83.8,78.8,30.17,SW,214,2.0,5.0,85,0.00,,---,0.00,860.00,VWS V14.01,2012-10-04 15:19:00,
2012-10-04 11:24:00,84.7,79.0,30.17,SE,141,3.0,5.0,83,0.00,,---,0.00,835.00,VWS V14.01,2012-10-04 15:24:00,
2012-10-04 11:29:00,85.4,78.2,30.17,SSE,155,1.0,6.0,79,0.00,,---,0.00,863.00,VWS V14.01,2012-10-04 15:29:00,
2012-10-04 11:34:00,84.7,77.8,30.17,SSW,208,1.0,7.0,80,0.00,,---,0.00,935.00,VWS V14.01,2012-10-04 15:34:00,
2012-10-04 11:39:00,86.2,79.3,30.17,South,177,1.0,7.0,80,0.00,,---,0.00,875.00,VWS V14.01,2012-10-04 15:39:00,
2012-10-04 11:45:00,85.7,78.1,30.17,ESE,112,0.0,7.0,78,0.00,,---,0.00,227.00,VWS V14.01,2012-10-04 15:45:00,
2012-10-04 11:50:00,85.2,78.3,30.17,SSW,208,0.0,7.0,80,0.00,,---,0.00,330.00,VWS V14.01,2012-10-04 15:50:00,
2012-10-04 11:55:00,85.8,78.5,30.17,South,177,3.0,7.0,79,0.00,,---,0.00,330.00,VWS V14.01,2012-10-04 15:55:00,
2012-10-04 12:00:00,86.1,78.1,30.17,ESE,103,0.0,7.0,77,0.00,,---,0.00,302.00,VWS V14.01,2012-10-04 16:00:00,
2012-10-04 12:05:00,85.8,78.5,30.17,South,170,5.0,7.0,79,0.00,,---,0.00,230.00,VWS V14.01,2012-10-04 16:05:00,
2012-10-04 12:10:00,86.2,78.2,30.17,ESE,119,2.0,7.0,77,0.00,,---,0.00,1053.00,VWS V14.01,2012-10-04 16:10:00,
2012-10-04 12:15:00,85.9,77.9,30.17,WSW,249,0.0,7.0,77,0.00,,---,0.00,267.00,VWS V14.01,2012-10-04 16:15:00,
2012-10-04 12:20:00,85.8,77.8,30.17,SSE,164,2.0,7.0,77,0.00,,---,0.00,343.00,VWS V14.01,2012-10-04 16:20:00,
2012-10-04 12:25:00,86.5,78.8,30.17,SSE,166,3.0,7.0,78,0.00,,---,0.00,336.00,VWS V14.01,2012-10-04 16:25:00,
2012-10-04 12:30:00,87.3,77.6,30.17,South,179,3.0,7.0,73,0.00,,---,0.00,969.00,VWS V14.01,2012-10-04 16:30:00,
2012-10-04 12:35:00,87.5,78.2,30.17,ESE,108,0.0,7.0,74,0.00,,---,0.00,1062.00,VWS V14.01,2012-10-04 16:35:00,
2012-10-04 12:40:00,88.6,78.8,30.16,SSW,208,2.0,7.0,73,0.00,,---,0.00,1020.00,VWS V14.01,2012-10-04 16:40:00,
2012-10-04 12:45:00,88.7,78.1,30.16,SE,137,1.0,7.0,71,0.00,,---,0.00,1055.00,VWS V14.01,2012-10-04 16:45:00,
2012-10-04 12:50:00,88.6,78.4,30.16,ESE,120,1.0,7.0,72,0.00,,---,0.00,1009.00,VWS V14.01,2012-10-04 16:50:00,
2012-10-04 12:55:00,87.5,77.4,30.16,South,181,4.0,7.0,72,0.00,,---,0.00,269.00,VWS V14.01,2012-10-04 16:55:00,
2012-10-04 13:00:00,87.0,77.7,30.15,ENE,78,2.0,7.0,74,0.00,,---,0.00,260.00,VWS V14.01,2012-10-04 17:00:00,
2012-10-04 13:05:00,86.5,76.8,30.15,East,91,3.0,7.0,73,0.00,,---,0.00,327.00,VWS V14.01,2012-10-04 17:05:00,
2012-10-04 13:10:00,86.5,77.2,30.15,ESE,121,1.0,4.0,74,0.00,,---,0.00,274.00,VWS V14.01,2012-10-04 17:10:00,
2012-10-04 13:15:00,86.7,77.4,30.15,ESE,108,1.0,6.0,74,0.00,,---,0.00,258.00,VWS V14.01,2012-10-04 17:15:00,
2012-10-04 13:20:00,87.5,77.4,30.14,NE,56,1.0,6.0,72,0.00,,---,0.00,311.00,VWS V14.01,2012-10-04 17:20:00,
2012-10-04 13:25:00,88.8,77.8,30.14,East,81,0.0,6.0,70,0.00,,---,0.00,983.00,VWS V14.01,2012-10-04 17:25:00,
2012-10-04 13:30:00,89.3,76.0,30.14,SE,146,3.0,6.0,65,0.00,,---,0.00,1007.00,VWS V14.01,2012-10-04 17:30:00,
2012-10-04 13:35:00,89.6,78.5,30.14,South,172,1.0,8.0,70,0.00,,---,0.00,1034.00,VWS V14.01,2012-10-04 17:35:00,
2012-10-04 13:40:00,89.7,77.3,30.14,SSE,161,3.0,8.0,67,0.00,,---,0.00,965.00,VWS V14.01,2012-10-04 17:40:00,
2012-10-04 13:45:00,89.6,77.2,30.14,SSE,162,3.0,8.0,67,0.00,,---,0.00,1004.00,VWS V14.01,2012-10-04 17:45:00,
2012-10-04 13:50:00,89.6,76.7,30.14,ESE,104,2.0,8.0,66,0.00,,---,0.00,260.00,VWS V14.01,2012-10-04 17:50:00,
2012-10-04 13:55:00,88.6,77.6,30.13,SW,218,1.0,8.0,70,0.00,,---,0.00,947.00,VWS V14.01,2012-10-04 17:55:00,
2012-10-04 14:00:00,89.7,77.3,30.13,ESE,106,2.0,8.0,67,0.00,,---,0.00,942.00,VWS V14.01,2012-10-04 18:00:00,
2012-10-04 14:05:00,89.5,78.4,30.13,SW,220,0.0,8.0,70,0.00,,---,0.00,902.00,VWS V14.01,2012-10-04 18:05:00,
2012-10-04 14:10:00,89.8,76.5,30.12,SE,139,5.0,5.0,65,0.00,,---,0.00,847.00,VWS V14.01,2012-10-04 18:10:00,
2012-10-04 14:15:00,90.0,76.7,30.12,SW,214,2.0,5.0,65,0.00,,---,0.00,809.00,VWS V14.01,2012-10-04 18:15:00,
2012-10-04 14:20:00,90.5,76.7,30.11,South,188,1.0,5.0,64,0.00,,---,0.00,875.00,VWS V14.01,2012-10-04 18:20:00,
2012-10-04 14:25:00,90.1,76.3,30.11,SSE,159,3.0,5.0,64,0.00,,---,0.00,788.00,VWS V14.01,2012-10-04 18:25:00,
2012-10-04 14:30:00,88.6,75.3,30.10,NE,56,2.0,5.0,65,0.00,,---,0.00,121.00,VWS V14.01,2012-10-04 18:30:00,
2012-10-04 14:35:00,87.9,76.5,30.10,North,8,2.0,5.0,69,0.00,,---,0.00,784.00,VWS V14.01,2012-10-04 18:35:00,
2012-10-04 14:40:00,89.1,77.6,30.10,NNE,16,0.0,5.0,69,0.00,,---,0.00,791.00,VWS V14.01,2012-10-04 18:40:00,
2012-10-04 14:45:00,89.7,75.4,30.10,North,4,0.0,5.0,63,0.00,,---,0.00,802.00,VWS V14.01,2012-10-04 18:45:00,
2012-10-04 14:50:00,90.1,75.3,30.09,SW,223,0.0,5.0,62,0.00,,---,0.00,789.00,VWS V14.01,2012-10-04 18:50:00,
2012-10-04 14:55:00,90.7,77.3,30.09,SSW,203,1.0,5.0,65,0.00,,---,0.00,828.00,VWS V14.01,2012-10-04 18:55:00,
2012-10-04 15:00:00,90.3,76.5,30.09,ESE,122,0.0,5.0,64,0.00,,---,0.00,830.00,VWS V14.01,2012-10-04 19:00:00,
2012-10-04 15:06:00,89.9,75.1,30.09,ENE,72,0.0,5.0,62,0.00,,---,0.00,830.00,VWS V14.01,2012-10-04 19:06:00,
2012-10-04 15:11:00,89.8,74.6,30.08,East,89,0.0,4.0,61,0.00,,---,0.00,673.00,VWS V14.01,2012-10-04 19:11:00,
2012-10-04 15:16:00,90.0,74.3,30.08,SE,142,0.0,4.0,60,0.00,,---,0.00,784.00,VWS V14.01,2012-10-04 19:16:00,
2012-10-04 15:21:00,90.2,74.4,30.08,ESE,112,3.0,5.0,60,0.00,,---,0.00,744.00,VWS V14.01,2012-10-04 19:21:00,
2012-10-04 15:26:00,90.2,73.9,30.07,ENE,57,0.0,5.0,59,0.00,,---,0.00,745.00,VWS V14.01,2012-10-04 19:26:00,
2012-10-04 15:31:00,90.1,72.8,30.07,East,85,0.0,5.0,57,0.00,,---,0.00,729.00,VWS V14.01,2012-10-04 19:31:00,
2012-10-04 15:36:00,90.3,73.0,30.07,East,100,1.0,5.0,57,0.00,,---,0.00,724.00,VWS V14.01,2012-10-04 19:36:00,
2012-10-04 15:41:00,90.9,74.6,30.06,NNW,343,2.0,5.0,59,0.00,,---,0.00,729.00,VWS V14.01,2012-10-04 19:41:00,
2012-10-04 15:46:00,90.3,76.5,30.07,North,357,1.0,5.0,64,0.00,,---,0.00,728.00,VWS V14.01,2012-10-04 19:46:00,
2012-10-04 15:51:00,88.5,75.2,30.06,East,81,1.0,5.0,65,0.00,,---,0.00,116.00,VWS V14.01,2012-10-04 19:51:00,
2012-10-04 15:56:00,88.8,75.1,30.06,ENE,72,0.0,5.0,64,0.00,,---,0.00,680.00,VWS V14.01,2012-10-04 19:56:00,
2012-10-04 16:00:00,89.8,75.1,30.09,ENE,70,3.0,5.0,62,0.00,,---,0.00,830.00,VWS V14.01,2012-10-04 20:00:00,
2012-10-04 16:01:00,89.2,74.5,30.06,North,349,2.0,5.0,62,0.00,,---,0.00,680.00,VWS V14.01,2012-10-04 20:01:00,
2012-10-04 16:06:00,89.1,76.7,30.06,North,359,3.0,10.0,67,0.00,,---,0.00,151.00,VWS V14.01,2012-10-04 20:06:00,
2012-10-04 16:11:00,88.5,77.5,30.06,NNW,347,2.0,9.0,70,0.00,,---,0.00,172.00,VWS V14.01,2012-10-04 20:11:00,
2012-10-04 16:16:00,88.3,78.1,30.06,NNW,333,0.0,9.0,72,0.00,,---,0.00,139.00,VWS V14.01,2012-10-04 20:16:00,
2012-10-04 16:21:00,88.5,78.3,30.06,NW,323,3.0,9.0,72,0.00,,---,0.00,141.00,VWS V14.01,2012-10-04 20:21:00,
2012-10-04 16:26:00,88.0,78.3,30.07,WNW,300,3.0,9.0,73,0.00,,---,0.00,146.00,VWS V14.01,2012-10-04 20:26:00,
2012-10-04 16:31:00,87.7,78.8,30.07,North,357,3.0,9.0,75,0.00,,---,0.00,160.00,VWS V14.01,2012-10-04 20:31:00,
2012-10-04 16:36:00,87.7,78.8,30.08,NW,319,3.0,9.0,75,0.00,,---,0.00,149.00,VWS V14.01,2012-10-04 20:36:00,
2012-10-04 16:41:00,87.4,78.5,30.07,NW,304,1.0,9.0,75,0.00,,---,0.00,135.00,VWS V14.01,2012-10-04 20:41:00,
2012-10-04 16:46:00,87.0,78.5,30.07,North,358,3.0,9.0,76,0.00,,---,0.00,111.00,VWS V14.01,2012-10-04 20:46:00,
2012-10-04 16:51:00,86.6,78.1,30.08,NNW,340,2.0,9.0,76,0.00,,---,0.00,105.00,VWS V14.01,2012-10-04 20:51:00,
2012-10-04 16:56:00,86.3,77.4,30.08,NW,318,2.0,9.0,75,0.00,,---,0.00,120.00,VWS V14.01,2012-10-04 20:56:00,
2012-10-04 17:00:00,88.8,77.8,30.06,West,274,2.0,10.0,70,0.00,,---,0.00,151.00,VWS V14.01,2012-10-04 21:00:00,
2012-10-04 17:01:00,86.1,78.1,30.10,WSW,241,4.0,9.0,77,0.00,,---,0.00,102.00,VWS V14.01,2012-10-04 21:01:00,
2012-10-04 17:06:00,86.3,77.8,30.12,SSW,212,5.0,9.0,76,0.00,,---,0.00,72.00,VWS V14.01,2012-10-04 21:06:00,
2012-10-04 17:11:00,84.9,76.5,30.15,South,179,7.0,20.0,76,0.00,,---,0.00,7.00,VWS V14.01,2012-10-04 21:11:00,
2012-10-04 17:16:00,79.7,70.3,30.13,South,174,16.0,27.0,73,0.00,,---,0.00,9.00,VWS V14.01,2012-10-04 21:16:00,
2012-10-04 17:21:00,75.6,70.1,30.14,SW,216,11.0,27.0,83,0.00,,---,0.00,12.00,VWS V14.01,2012-10-04 21:21:00,
2012-10-04 17:26:00,73.2,69.1,30.15,South,183,9.0,28.0,87,0.00,,---,0.00,9.00,VWS V14.01,2012-10-04 21:26:00,
2012-10-04 17:31:00,72.1,68.7,30.14,South,174,14.0,28.0,89,0.00,,---,0.00,7.00,VWS V14.01,2012-10-04 21:31:00,
2012-10-04 17:36:00,71.6,68.8,30.14,South,191,5.0,28.0,91,0.00,,---,0.00,5.00,VWS V14.01,2012-10-04 21:36:00,
2012-10-04 17:41:00,71.2,68.8,30.13,South,183,3.0,28.0,92,0.00,,---,0.00,5.00,VWS V14.01,2012-10-04 21:41:00,
2012-10-04 17:46:00,71.0,68.6,30.15,SSE,159,8.0,28.0,92,0.00,,---,0.00,0.00,VWS V14.01,2012-10-04 21:46:00,
2012-10-04 17:51:00,70.9,68.8,30.15,South,185,2.0,28.0,93,0.00,,---,0.00,0.00,VWS V14.01,2012-10-04 21:51:00,
2012-10-04 17:56:00,70.9,69.1,30.15,SSE,163,1.0,28.0,94,0.00,,---,0.00,0.00,VWS V14.01,2012-10-04 21:56:00,
2012-10-04 18:00:00,86.2,78.2,30.14,SSW,208,12.0,12.0,77,0.00,,---,0.00,49.00,VWS V14.01,2012-10-04 22:00:00,
2012-10-04 18:01:00,70.9,69.1,30.15,SSE,166,0.0,28.0,94,0.00,,---,0.00,0.00,VWS V14.01,2012-10-04 22:01:00,
2012-10-04 18:06:00,70.8,69.0,30.15,South,172,1.0,28.0,94,0.00,,---,0.00,0.00,VWS V14.01,2012-10-04 22:06:00,
2012-10-04 18:11:00,70.8,69.0,30.16,SE,140,3.0,3.0,94,0.00,,---,0.00,0.00,VWS V14.01,2012-10-04 22:11:00,
2012-10-04 18:16:00,70.9,69.4,30.16,ENE,75,2.0,4.0,95,0.00,,---,0.00,0.00,VWS V14.01,2012-10-04 22:16:00,
2012-10-04 18:21:00,71.0,69.5,30.15,ENE,70,0.0,4.0,95,0.00,,---,0.00,0.00,VWS V14.01,2012-10-04 22:21:00,
2012-10-04 18:26:00,71.2,69.7,30.15,East,97,0.0,4.0,95,0.00,,---,0.00,0.00,VWS V14.01,2012-10-04 22:26:00,
2012-10-04 18:31:00,71.3,69.8,30.13,ENE,66,0.0,4.0,95,0.00,,---,0.00,0.00,VWS V14.01,2012-10-04 22:31:00,
2012-10-04 18:36:00,71.2,69.7,30.13,East,97,0.0,4.0,95,0.00,,---,0.00,0.00,VWS V14.01,2012-10-04 22:36:00,
2012-10-04 18:42:00,71.0,69.5,30.12,East,97,0.0,4.0,95,0.00,,---,0.00,0.00,VWS V14.01,2012-10-04 22:42:00,
2012-10-04 18:47:00,71.1,69.9,30.12,North,360,0.0,4.0,96,0.00,,---,0.00,0.00,VWS V14.01,2012-10-04 22:47:00,
2012-10-04 18:52:00,71.5,70.3,30.12,North,1,0.0,4.0,96,0.00,,---,0.00,0.00,VWS V14.01,2012-10-04 22:52:00,
2012-10-04 18:57:00,71.6,70.4,30.12,North,1,0.0,4.0,96,0.00,,---,0.00,0.00,VWS V14.01,2012-10-04 22:57:00,
2012-10-04 19:00:00,70.8,69.0,30.15,SE,135,2.0,28.0,94,0.00,,---,0.00,0.00,VWS V14.01,2012-10-04 23:00:00,
2012-10-04 19:02:00,71.7,70.5,30.13,North,360,0.0,4.0,96,0.00,,---,0.00,0.00,VWS V14.01,2012-10-04 23:02:00,
2012-10-04 19:07:00,71.6,70.4,30.13,ENE,62,1.0,4.0,96,0.00,,---,0.00,0.00,VWS V14.01,2012-10-04 23:07:00,
2012-10-04 19:12:00,71.3,70.1,30.13,NE,34,1.0,5.0,96,0.00,,---,0.00,0.00,VWS V14.01,2012-10-04 23:12:00,
2012-10-04 19:17:00,71.2,70.0,30.13,ENE,76,1.0,5.0,96,0.00,,---,0.00,0.00,VWS V14.01,2012-10-04 23:17:00,
2012-10-04 19:22:00,71.1,69.9,30.13,NE,51,2.0,5.0,96,0.00,,---,0.00,0.00,VWS V14.01,2012-10-04 23:22:00,
2012-10-04 19:27:00,71.3,70.1,30.12,ENE,59,2.0,5.0,96,0.00,,---,0.00,0.00,VWS V14.01,2012-10-04 23:27:00,
2012-10-04 19:32:00,71.3,70.1,30.12,ENE,75,2.0,5.0,96,0.00,,---,0.00,0.00,VWS V14.01,2012-10-04 23:32:00,
2012-10-04 19:37:00,71.3,70.1,30.13,East,79,2.0,5.0,96,0.00,,---,0.00,0.00,VWS V14.01,2012-10-04 23:37:00,
2012-10-04 19:42:00,71.2,70.0,30.13,ESE,116,1.0,5.0,96,0.00,,---,0.00,0.00,VWS V14.01,2012-10-04 23:42:00,
2012-10-04 19:47:00,71.2,70.0,30.14,ENE,77,3.0,6.0,96,0.00,,---,0.00,0.00,VWS V14.01,2012-10-04 23:47:00,
2012-10-04 19:52:00,71.2,70.0,30.14,NNE,26,1.0,6.0,96,0.00,,---,0.00,0.00,VWS V14.01,2012-10-04 23:52:00,
2012-10-04 19:57:00,71.2,70.0,30.15,ENE,69,4.0,6.0,96,0.00,,---,0.00,0.00,VWS V14.01,2012-10-04 23:57:00,
2012-10-04 20:00:00,71.5,70.3,30.13,ESE,114,1.0,4.0,96,0.00,,---,0.00,0.00,VWS V14.01,2012-10-05 00:00:00,
2012-10-04 20:02:00,71.3,70.4,30.15,ENE,64,3.0,6.0,97,0.00,,---,0.00,0.00,VWS V14.01,2012-10-05 00:02:00,
2012-10-04 20:07:00,71.4,70.2,30.15,ENE,74,0.0,6.0,96,0.00,,---,0.00,0.00,VWS V14.01,2012-10-05 00:07:00,
2012-10-04 20:12:00,71.5,70.6,30.15,ENE,73,4.0,6.0,97,0.00,,---,0.00,0.00,VWS V14.01,2012-10-05 00:12:00,
2012-10-04 20:17:00,71.4,70.2,30.15,East,79,3.0,7.0,96,0.00,,---,0.00,0.00,VWS V14.01,2012-10-05 00:17:00,
2012-10-04 20:22:00,71.3,70.1,30.15,ENE,75,2.0,9.0,96,0.00,,---,0.00,0.00,VWS V14.01,2012-10-05 00:22:00,
2012-10-04 20:27:00,71.1,69.9,30.15,NNE,25,1.0,9.0,96,0.00,,---,0.00,0.00,VWS V14.01,2012-10-05 00:27:00,
2012-10-04 20:32:00,71.0,70.1,30.15,NE,52,1.0,9.0,97,0.00,,---,0.00,0.00,VWS V14.01,2012-10-05 00:32:00,
2012-10-04 20:37:00,71.0,70.1,30.15,NNE,22,3.0,9.0,97,0.00,,---,0.00,0.00,VWS V14.01,2012-10-05 00:37:00,
2012-10-04 20:42:00,71.0,70.1,30.15,East,91,4.0,9.0,97,0.00,,---,0.00,0.00,VWS V14.01,2012-10-05 00:42:00,
2012-10-04 20:47:00,71.1,70.2,30.15,East,98,2.0,9.0,97,0.00,,---,0.00,0.00,VWS V14.01,2012-10-05 00:47:00,
2012-10-04 20:52:00,71.1,70.2,30.15,SE,143,0.0,9.0,97,0.00,,---,0.00,0.00,VWS V14.01,2012-10-05 00:52:00,
2012-10-04 20:57:00,71.3,70.4,30.15,NE,53,0.0,9.0,97,0.00,,---,0.00,0.00,VWS V14.01,2012-10-05 00:57:00,
2012-10-04 21:00:00,71.4,70.5,30.15,NE,43,4.0,6.0,97,0.00,,---,0.00,0.00,VWS V14.01,2012-10-05 01:00:00,
2012-10-04 21:02:00,71.3,70.4,30.15,ENE,60,4.0,9.0,97,0.00,,---,0.00,0.00,VWS V14.01,2012-10-05 01:02:00,
2012-10-04 21:07:00,71.3,70.4,30.15,East,87,3.0,9.0,97,0.00,,---,0.00,0.00,VWS V14.01,2012-10-05 01:07:00,
2012-10-04 21:12:00,71.4,70.5,30.14,NE,35,0.0,6.0,97,0.00,,---,0.00,0.00,VWS V14.01,2012-10-05 01:12:00,
2012-10-04 21:17:00,71.6,70.7,30.14,ENE,66,0.0,6.0,97,0.00,,---,0.00,0.00,VWS V14.01,2012-10-05 01:17:00,
2012-10-04 21:22:00,71.7,70.8,30.13,ENE,67,1.0,7.0,97,0.00,,---,0.00,0.00,VWS V14.01,2012-10-05 01:22:00,
2012-10-04 21:27:00,71.9,71.0,30.13,North,4,0.0,7.0,97,0.00,,---,0.00,0.00,VWS V14.01,2012-10-05 01:27:00,
2012-10-04 21:32:00,72.1,71.2,30.13,North,4,0.0,7.0,97,0.00,,---,0.00,0.00,VWS V14.01,2012-10-05 01:32:00,
2012-10-04 21:37:00,72.1,71.2,30.13,NE,47,0.0,7.0,97,0.00,,---,0.00,0.00,VWS V14.01,2012-10-05 01:37:00,
2012-10-04 21:42:00,72.0,71.1,30.13,NE,43,0.0,7.0,97,0.00,,---,0.00,0.00,VWS V14.01,2012-10-05 01:42:00,
2012-10-04 21:47:00,71.9,71.0,30.14,ENE,68,0.0,7.0,97,0.00,,---,0.00,0.00,VWS V14.01,2012-10-05 01:47:00,
2012-10-04 21:52:00,71.8,70.9,30.14,NE,56,1.0,7.0,97,0.00,,---,0.00,0.00,VWS V14.01,2012-10-05 01:52:00,
2012-10-04 21:57:00,71.7,70.8,30.14,NE,56,3.0,7.0,97,0.00,,---,0.00,0.00,VWS V14.01,2012-10-05 01:57:00,
2012-10-04 22:00:00,71.3,70.4,30.15,ENE,60,1.0,9.0,97,0.00,,---,0.00,0.00,VWS V14.01,2012-10-05 02:00:00,
2012-10-04 22:02:00,71.6,70.7,30.14,East,81,1.0,7.0,97,0.00,,---,0.00,0.00,VWS V14.01,2012-10-05 02:02:00,
2012-10-04 22:07:00,71.6,70.7,30.14,ENE,62,0.0,7.0,97,0.00,,---,0.00,0.00,VWS V14.01,2012-10-05 02:07:00,
2012-10-04 22:12:00,71.6,70.7,30.14,East,98,4.0,4.0,97,0.00,,---,0.00,0.00,VWS V14.01,2012-10-05 02:12:00,
2012-10-04 22:17:00,71.6,70.7,30.14,ENE,72,2.0,4.0,97,0.00,,---,0.00,0.00,VWS V14.01,2012-10-05 02:17:00,
2012-10-04 22:23:00,71.5,70.6,30.15,ENE,72,0.0,4.0,97,0.00,,---,0.00,0.00,VWS V14.01,2012-10-05 02:23:00,
2012-10-04 22:28:00,71.5,70.6,30.15,ENE,75,0.0,4.0,97,0.00,,---,0.00,0.00,VWS V14.01,2012-10-05 02:28:00,
2012-10-04 22:33:00,71.4,70.5,30.15,East,82,0.0,4.0,97,0.00,,---,0.00,0.00,VWS V14.01,2012-10-05 02:33:00,
2012-10-04 22:38:00,71.4,70.5,30.15,East,91,0.0,4.0,97,0.00,,---,0.00,0.00,VWS V14.01,2012-10-05 02:38:00,
2012-10-04 22:43:00,71.4,70.5,30.15,East,91,0.0,4.0,97,0.00,,---,0.00,0.00,VWS V14.01,2012-10-05 02:43:00,
2012-10-04 22:48:00,71.4,70.5,30.15,East,91,0.0,4.0,97,0.00,,---,0.00,0.00,VWS V14.01,2012-10-05 02:48:00,
2012-10-04 22:53:00,71.4,70.5,30.15,East,91,0.0,4.0,97,0.00,,---,0.00,0.00,VWS V14.01,2012-10-05 02:53:00,
2012-10-04 22:58:00,71.3,70.4,30.15,East,91,0.0,4.0,97,0.00,,---,0.00,0.00,VWS V14.01,2012-10-05 02:58:00,
2012-10-04 23:00:00,71.6,70.7,30.14,ENE,77,2.0,7.0,97,0.00,,---,0.00,0.00,VWS V14.01,2012-10-05 03:00:00,
2012-10-04 23:03:00,71.2,70.3,30.14,East,91,0.0,4.0,97,0.00,,---,0.00,0.00,VWS V14.01,2012-10-05 03:03:00,
2012-10-04 23:08:00,71.2,70.3,30.15,East,91,0.0,4.0,97,0.00,,---,0.00,0.00,VWS V14.01,2012-10-05 03:08:00,
2012-10-04 23:13:00,71.2,70.3,30.15,East,91,0.0,1.0,97,0.00,,---,0.00,0.00,VWS V14.01,2012-10-05 03:13:00,
2012-10-04 23:18:00,71.3,70.4,30.15,East,91,0.0,1.0,97,0.00,,---,0.00,0.00,VWS V14.01,2012-10-05 03:18:00,
2012-10-04 23:23:00,71.2,70.3,30.14,East,91,0.0,2.0,97,0.00,,---,0.00,0.00,VWS V14.01,2012-10-05 03:23:00,
2012-10-04 23:28:00,71.2,70.3,30.14,East,91,0.0,2.0,97,0.00,,---,0.00,0.00,VWS V14.01,2012-10-05 03:28:00,
2012-10-04 23:33:00,71.2,70.3,30.14,East,91,0.0,2.0,97,0.00,,---,0.00,0.00,VWS V14.01,2012-10-05 03:33:00,
2012-10-04 23:38:00,71.2,70.6,30.14,East,91,0.0,2.0,98,0.00,,---,0.00,0.00,VWS V14.01,2012-10-05 03:38:00,
2012-10-04 23:43:00,71.2,70.3,30.14,East,91,0.0,2.0,97,0.00,,---,0.00,0.00,VWS V14.01,2012-10-05 03:43:00,
2012-10-04 23:48:00,71.1,70.2,30.14,East,91,0.0,2.0,97,0.00,,---,0.00,0.00,VWS V14.01,2012-10-05 03:48:00,
2012-10-04 23:53:00,70.9,70.0,30.14,ENE,62,0.0,2.0,97,0.00,,---,0.00,0.00,VWS V14.01,2012-10-05 03:53:00,
2012-10-04 23:58:00,71.0,70.1,30.14,ENE,62,0.0,2.0,97,0.00,,---,0.00,0.00,VWS V14.01,2012-10-05 03:58:00,